Location: Taaricht
(32.5378°N, 5.4251°W)
Time: 11:49:09
(UTC+00:00)

SJ-6B - Pass Details

Date: 09 April 2020
Orbit: 509 x 582 km, 97.6° (Epoch: 05 June)

Event Time Altitude Azimuth Distance (km) Brightness Sun altitude
Exits shadow 20:15:18 29° 162° (SSE) 1,065 3.9 -18.5°
Maximum altitude 20:17:20 81° 77° (ENE) 591 2.8 -18.9°
Drops below altitude 10° 20:21:28 10° 351° (N) 1,903 6.0 -19.7°
Sets 20:23:38 0° 350° (N) 2,806 6.9 -20.1°
